Location: Colorado Springs
(38.8340°N, 104.8210°W)
Time: 02:28:33
(UTC-07:00)

Vanguard 3 - Pass Details

Date: 31 October 2017
Orbit: 509 x 3263 km, 33.3° (Epoch: 22 November)

Event Time Altitude Azimuth Distance (km) Brightness Sun altitude
Rises 00:58:14 0° 229° (SW) 6,899 - -65.1°
Reaches altitude 10° 01:02:49 10° 224° (SW) 6,053 - -65.0°
Maximum altitude 01:21:38 53° 155° (SSE) 3,619 - -63.9°
Exits shadow 01:33:10 23° 93° (E) 4,428 10.8 -63.0°
Drops below altitude 10° 01:37:16 10° 85° (E) 5,141 11.3 -62.6°
Sets 01:40:45 0° 81° (E) 5,844 11.8 -62.3°
